Weather in Mandrem

India     15°32′45″N   73°47′08″E
temp.,
°C
wind,
m/s
gust,
m/s
humid.,
%
clouds,
%
prec.,
mm/h
press.,
hPa
HPBL,
m
14 may, fri
fri1423:30+30wnw127195 0.2 1005406
02:30+29nne2274100 0.0 1003361
05:30+28e3380100 0.3 1003252
08:30+29sse4577100 0.6 1005714
11:30+30sw447097 0.6 1005774
14:30+30wsw4470100 0.7 1002531
17:30+30wsw4472100 0.8 1001640
20:30+29nw3478100 0.3 1003472
15 may, sat
sat1523:30+28sw228298 0.4 1003258
02:30+29ssw2379100 0.3 1001420
05:30+28nnw4484100 0.4 1000393
08:30+29ne2276100 0.0 1001281
11:30+31sse3568100 0.0 1000641
14:30+29ssw8876100 0.4 998378
17:30+28ese61377100 4.7 998800
20:30+29ese71266100 0.0 999865
16 may, sun
sun1623:30+28e101972100 1.6 9991341
02:30+26ese91684100 3.8 997932
05:30+26e142087100 10.8 995947
08:30+26se132094100 22.5 9981239
11:30+27se162387100 50.1 9981689
14:30+27sse172591100 11.6 9971779
17:30+28sse162285100 20.4 9981680
20:30+28sse15198395 10.2 10011420
17 may, mon
mon1723:30+28sse141883100 14.2 10021410
02:30+28sse141782100 2.4 10001355
05:30+28s121679100 5.3 10021308
08:30+29s121578100 2.1 10041286
11:30+30sse11137794 3.0 10051196
14:30+29sse1112766 2.3 10031117
17:30+29sse111380100 2.9 1003953
20:30+29s101181100 0.7 1005900
18 may, tue
tue1823:30+28sse8108199 2.5 1005898
02:30+28sse81083100 2.4 1003785
05:30+27sse81086100 3.9 1004687
08:30+28se7981100 1.5 1006657
11:30+29s8976100 1.9 1006883
14:30+27s7886100 2.3 1005520
17:30+28s4571100 2.6 1005829
20:30+29sw3469100 0.2 1007645